World > North America > United States > Michigan

Hourly Milan Township, MI Regional Weather

Feedback E-mail the Weather

Quick WX

Milan Township, MI Weather Maps

°F °C°F °C
Milan Township Weather Map
UTC Time: 7/1/2022, 07:59
Your Time:

Milan Township, MI Regional Weather

Expires:202207010800;;479925
ASUS43 KDTX 010710
RWRMI 
MICHIGAN HOURLY REGIONAL WEATHER ROUNDUP
NATIONAL WEATHER SERVICE DETROIT/PONTIAC MI
300 AM EDT FRI JUL 01 2022

NOTE: "FAIR" INDICATES FEW OR NO CLOUDS BELOW 12,000 FEET WITH NO
SIGNIFICANT WEATHER AND/OR OBSTRUCTION TO VISIBILITY.


MIZ047>049-052>055-059>063-066>070-074>076-081>083-010800-
SOUTHEAST LOWER MICHIGAN
  
CITY           SKY/WX    TMP DP  RH WIND       PRES   REMARKS
ADRIAN         PTCLDY    70  52  52 SW3       29.98F                  
ALMA           PTCLDY    76  53  44 SW7       29.92S                  
ANN ARBOR      PTCLDY    62  55  77 W5        29.96F                  
BAD AXE        PTCLDY    76  53  44 SW9       29.89S                  
CARO           PTCLDY    76  53  44 SW9       29.90F                  
DETROIT CITY   PTCLDY    78  51  38 SW9       29.95F                  
DETROIT        PTCLDY    70  55  59 S6        29.96F                  
FLINT          PTCLDY    75  53  46 SW8       29.93F                  
GROSSE ILE     PTCLDY    75  55  49 SW3       29.96F                  
HILLSDALE      CLOUDY    70  52  52 S6        29.99F                  
HOWELL         MOCLDY    74  51  44 S6        29.96F                  

CITY           SKY/WX    TMP DP  RH WIND       PRES   REMARKS
JACKSON        PTCLDY    71  53  52 S6        29.97F                  
LAMBERTVILLE   PTCLDY    76  55  47 S6        29.97F                  
LANSING        MOCLDY    75  54  47 SW10      29.94F                  
LAPEER         PTCLDY    76  50  39 SW6       29.93F                  
MASON          MOCLDY    73  54  51 S3        29.95F                  
MONROE         MOCLDY    75  55  50 SW5       29.96F                  
MT. CLEMENS    MOCLDY    74  58  56 SW9       29.91F                  
PONTIAC        MOCLDY    75  51  43 SW8       29.95F                  
PORT HOPE        N/A     79  33  19 SW7       29.85F                  
PORT HURON     MOCLDY    68  61  77 SW3       29.93F                  
TRI CITIES     PTCLDY    78  55  44 SW10      29.90F                  
MIDLAND        PTCLDY    75  55  48 SW5       29.89S                  
TROY           MOCLDY    75  46  36 SW6       29.96F                  
SAGINAW HB     PTCLDY    77  53  43 SW8       29.90F                  
$$

SKY/WX - Weather  TMP - Temperature  DP - Dew Point  RH - Humidity
WIND - Wind Direction/Speed PRES - Barometric Pressure VSB - Visibility
WCI - Wind Chill Index E13G22 Wind - East Wind 13 mph/Gusts of 22 mph

Trending Headlines

Milan Township Radar Loop



Milan Township Quick Facts


National Two Day Weather Forecast


E-mail the Milan Township Weather Forecast

Voice your opinion or tell us about page issues...